CW9854 Weather Reports


Display with metric or nautical units.
time (UTC)temp
F
wind
direction
speed
MPH
gust
MPH
rain 1hr
in
rain 24hr
in
rain mn
in
humidity
%
barometer
mb
20200407175504 62 97 0.0 4.0 0.00 0.00 0.00 29 1008.4
20200407175004 63 182 1.0 6.0 0.00 0.00 0.00 27 1008.5
20200407174504 64 177 2.0 6.0 0.00 0.00 0.00 26 1008.9
20200407174004 64 200 2.0 7.0 0.00 0.00 0.00 28 1009.0
20200407173507 64 232 1.0 7.0 0.00 0.00 0.00 30 1009.1
20200407173004 64 235 1.0 6.0 0.00 0.00 0.00 31 1009.0
20200407172503 64 0 0.0 0.0 0.00 0.00 0.00 30 1009.0
20200407172004 63 0 0.0 0.0 0.00 0.00 0.00 34 1009.0
20200407171504 62 0 0.0 0.0 0.00 0.00 0.00 34 1009.1
20200407171004 62 0 0.0 0.0 0.00 0.00 0.00 31 1009.3
20200407170504 62 0 0.0 0.0 0.00 0.00 0.00 35 1009.3
20200407170004 62 351 0.0 4.0 0.00 0.00 0.00 31 1009.4
20200407165504 62 13 2.0 10.0 0.00 0.00 0.00 32 1009.5
20200407165004 62 360 3.0 10.0 0.00 0.00 0.00 30 1009.5
20200407164507 62 324 1.0 4.0 0.00 0.00 0.00 30 1009.6
20200407164003 63 167 1.0 4.0 0.00 0.00 0.00 29 1009.9
20200407163504 63 144 2.0 5.0 0.00 0.00 0.00 28 1010.0
20200407163004 63 121 2.0 5.0 0.00 0.00 0.00 32 1010.1
20200407162504 62 94 2.0 7.0 0.00 0.00 0.00 35 1010.2
20200407162004 62 73 2.0 7.0 0.00 0.00 0.00 33 1010.3
20200407161504 61 59 2.0 7.0 0.00 0.00 0.00 35 1010.4
20200407161004 61 62 1.0 6.0 0.00 0.00 0.00 33 1010.7
20200407160505 61 74 2.0 6.0 0.00 0.00 0.00 34 1010.8
20200407160003 61 71 2.0 6.0 0.00 0.00 0.00 35 1010.9
20200407155503 60 60 2.0 6.0 0.00 0.00 0.00 36 1011.0
20200407155003 60 167 1.0 6.0 0.00 0.00 0.00 33 1011.1
20200407154505 60 141 1.0 4.0 0.00 0.00 0.00 38 1011.2
20200407154003 60 82 2.0 6.0 0.00 0.00 0.00 35 1011.3
20200407153503 60 73 3.0 7.0 0.00 0.00 0.00 35 1011.4
20200407153003 60 70 2.0 7.0 0.00 0.00 0.00 35 1011.6
20200407152503 60 66 0.0 4.0 0.00 0.00 0.00 35 1011.6
20200407152003 60 86 1.0 6.0 0.00 0.00 0.00 34 1011.8
20200407151503 59 97 1.0 6.0 0.00 0.00 0.00 35 1011.9
20200407151003 59 124 2.0 5.0 0.00 0.00 0.00 37 1011.9
20200407150503 59 119 1.0 5.0 0.00 0.00 0.00 37 1012.1
20200407150003 58 85 1.0 4.0 0.00 0.00 0.00 37 1012.1
20200407145503 58 78 1.0 8.0 0.00 0.00 0.00 38 1012.2
20200407145003 57 354 2.0 8.0 0.00 0.00 0.00 37 1012.2
20200407144505 57 288 2.0 6.0 0.00 0.00 0.00 38 1012.3
20200407144003 58 87 1.0 6.0 0.00 0.00 0.00 38 1012.2
20200407143503 58 83 1.0 6.0 0.00 0.00 0.00 37 1012.3
20200407143004 58 72 1.0 4.0 0.00 0.00 0.00 38 1012.3
20200407142503 57 63 1.0 3.0 0.00 0.00 0.00 40 1012.3
20200407142003 57 61 1.0 4.0 0.00 0.00 0.00 41 1012.2
20200407141503 56 68 1.0 6.0 0.00 0.00 0.00 42 1012.4
20200407141003 56 56 1.0 6.0 0.00 0.00 0.00 42 1012.4
20200407140505 56 46 1.0 4.0 0.00 0.00 0.00 43 1012.4
20200407140003 56 70 1.0 4.0 0.00 0.00 0.00 43 1012.5
20200407135504 55 72 2.0 6.0 0.00 0.00 0.00 43 1012.6
20200407135003 55 60 2.0 6.0 0.00 0.00 0.00 43 1012.7
20200407134503 55 56 1.0 6.0 0.00 0.00 0.00 43 1012.8
20200407134003 55 70 0.0 6.0 0.00 0.00 0.00 43 1012.8
20200407133503 55 0 0.0 0.0 0.00 0.00 0.00 44 1012.8
20200407133004 55 65 0.0 2.0 0.00 0.00 0.00 44 1013.0
20200407132503 54 65 1.0 4.0 0.00 0.00 0.00 45 1013.0
20200407132003 54 69 1.0 6.0 0.00 0.00 0.00 45 1013.1
20200407131503 53 72 2.0 6.0 0.00 0.00 0.00 45 1013.1
20200407131005 53 72 1.0 4.0 0.00 0.00 0.00 45 1013.2
20200407130504 52 0 0.0 0.0 0.00 0.00 0.00 44 1013.2
20200407130003 52 0 0.0 0.0 0.00 0.00 0.00 44 1013.1
20200407125503 51 0 0.0 0.0 0.00 0.00 0.00 44 1013.1
20200407125004 50 0 0.0 0.0 0.00 0.00 0.00 46 1013.1
20200407124503 50 0 0.0 0.0 0.00 0.00 0.00 48 1013.2
20200407124004 49 0 0.0 0.0 0.00 0.00 0.00 50 1013.2
20200407123504 48 0 0.0 0.0 0.00 0.00 0.00 52 1013.3
20200407123005 47 0 0.0 0.0 0.00 0.00 0.00 57 1013.2
20200407122503 46 0 0.0 0.0 0.00 0.00 0.00 59 1013.3
20200407122003 44 0 0.0 0.0 0.00 0.00 0.00 65 1013.3
20200407121503 43 0 0.0 0.0 0.00 0.00 0.00 67 1013.2
20200407121005 42 0 0.0 0.0 0.00 0.00 0.00 69 1013.3
20200407120504 41 0 0.0 0.0 0.00 0.00 0.00 70 1013.3
20200407120009 40 0 0.0 0.0 0.00 0.00 0.00 72 1013.4
20200407115504 39 0 0.0 0.0 0.00 0.00 0.00 73 1013.3
20200407115004 38 0 0.0 0.0 0.00 0.00 0.00 73 1013.3
20200407114716 38 0 0.0 0.0 0.00 0.00 0.00 73 1013.3
20200407114003 38 0 0.0 0.0 0.00 0.00 0.00 73 1013.4
20200407113503 38 0 0.0 0.0 0.00 0.00 0.00 73 1013.3
20200407113004 38 0 0.0 0.0 0.00 0.00 0.00 71 1013.5
20200407112503 38 0 0.0 0.0 0.00 0.00 0.00 69 1013.4
20200407112003 38 0 0.0 0.0 0.00 0.00 0.00 67 1013.3
20200407111503 38 0 0.0 0.0 0.00 0.00 0.00 67 1013.4
20200407111004 38 0 0.0 0.0 0.00 0.00 0.00 66 1013.3
20200407110504 38 0 0.0 0.0 0.00 0.00 0.00 66 1013.2
20200407110004 38 0 0.0 0.0 0.00 0.00 0.00 65 1013.2
20200407105503 38 0 0.0 0.0 0.00 0.00 0.00 65 1013.1
20200407105003 38 0 0.0 0.0 0.00 0.00 0.00 65 1013.1
20200407104503 38 0 0.0 0.0 0.00 0.00 0.00 65 1013.0
20200407104003 37 0 0.0 0.0 0.00 0.00 0.00 65 1013.1
20200407103502 37 0 0.0 0.0 0.00 0.00 0.00 66 1013.1
20200407103005 37 0 0.0 0.0 0.00 0.00 0.00 66 1013.0
20200407102510 37 0 0.0 0.0 0.00 0.00 0.00 66 1013.1
20200407102005 36 0 0.0 0.0 0.00 0.00 0.00 67 1013.1
20200407101504 37 0 0.0 0.0 0.00 0.00 0.00 68 1013.1
20200407101004 37 0 0.0 0.0 0.00 0.00 0.00 66 1013.1
20200407100503 37 0 0.0 0.0 0.00 0.00 0.00 66 1013.2
20200407100003 38 0 0.0 0.0 0.00 0.00 0.00 65 1013.2
20200407095503 38 0 0.0 0.0 0.00 0.00 0.00 65 1013.2
20200407095003 38 0 0.0 0.0 0.00 0.00 0.00 64 1013.1
20200407094502 38 0 0.0 0.0 0.00 0.00 0.00 65 1013.1
20200407094004 38 0 0.0 0.0 0.00 0.00 0.00 65 1013.2
20200407093504 38 0 0.0 0.0 0.00 0.00 0.00 65 1013.1
20200407093004 38 0 0.0 0.0 0.00 0.00 0.00 65 1013.2
20200407092503 38 0 0.0 0.0 0.00 0.00 0.00 66 1013.1
20200407092004 39 0 0.0 0.0 0.00 0.00 0.00 67 1013.2
20200407091002 38 0 0.0 0.0 0.00 0.00 0.00 67 1013.5
20200407090505 38 0 0.0 0.0 0.00 0.00 0.00 68 1013.4
20200407090005 39 0 0.0 0.0 0.00 0.00 0.00 68 1013.4
20200407085503 39 0 0.0 0.0 0.00 0.00 0.00 67 1013.4
20200407085003 39 0 0.0 0.0 0.00 0.00 0.00 66 1013.5
20200407084505 39 0 0.0 0.0 0.00 0.00 0.00 65 1013.5
20200407084003 39 0 0.0 0.0 0.00 0.00 0.00 64 1013.6
20200407083503 39 0 0.0 0.0 0.00 0.00 0.00 63 1013.6
20200407083003 40 0 0.0 0.0 0.00 0.00 0.00 64 1013.6
20200407082503 40 0 0.0 0.0 0.00 0.00 0.00 64 1013.5
20200407082003 40 0 0.0 0.0 0.00 0.00 0.00 63 1013.6
20200407081502 40 0 0.0 0.0 0.00 0.00 0.00 62 1013.5
20200407081005 40 0 0.0 0.0 0.00 0.00 0.00 64 1013.5
20200407080503 40 0 0.0 0.0 0.00 0.00 0.00 63 1013.5
20200407080003 40 0 0.0 0.0 0.00 0.00 0.00 61 1013.5
20200407075503 40 0 0.0 0.0 0.00 0.00 0.00 60 1013.6
20200407075013 40 0 0.0 0.0 0.00 0.00 0.00 61 1013.6
20200407074503 40 0 0.0 0.0 0.00 0.00 0.00 61 1013.5
20200407074003 40 0 0.0 0.0 0.00 0.00 0.00 60 1013.6
20200407073503 40 0 0.0 0.0 0.00 0.00 0.00 61 1013.6
20200407073003 40 0 0.0 0.0 0.00 0.00 0.00 61 1013.7
20200407072505 40 0 0.0 0.0 0.00 0.00 0.00 61 1013.7
20200407072005 40 0 0.0 0.0 0.00 0.00 0.00 60 1013.7
20200407071504 41 0 0.0 0.0 0.00 0.00 0.00 62 1013.7
20200407071005 41 0 0.0 0.0 0.00 0.00 0.00 62 1013.8
20200407070504 42 0 0.0 0.0 0.00 0.00 0.00 57 1013.8
20200407070004 42 0 0.0 0.0 0.00 0.00 0.00 59 1014.0
20200407065503 42 0 0.0 0.0 0.00 0.00 0.00 58 1014.1
20200407065003 43 0 0.0 0.0 0.00 0.00 0.00 58 1014.1
20200407064503 43 0 0.0 0.0 0.00 0.00 0.00 56 1014.1
20200407064003 43 0 0.0 0.0 0.00 0.00 0.00 57 1014.0
20200407063503 44 0 0.0 0.0 0.00 0.00 0.00 60 1014.1
20200407063003 44 0 0.0 0.0 0.00 0.00 0.00 51 1014.1
20200407062503 44 0 0.0 0.0 0.00 0.00 0.00 53 1014.1
20200407062003 44 0 0.0 0.0 0.00 0.00 0.00 52 1014.1
20200407061505 44 0 0.0 0.0 0.00 0.00 0.00 55 1014.1
20200407061004 45 0 0.0 0.0 0.00 0.00 0.00 54 1014.2
20200407060503 45 0 0.0 0.0 0.00 0.00 0.00 55 1014.3
20200407060003 45 0 0.0 0.0 0.00 0.00 0.00 57 1014.4
20200407055503 45 0 0.0 0.0 0.00 0.00 0.00 55 1014.4
20200407055003 45 0 0.0 0.0 0.00 0.00 0.00 56 1014.4
20200407054502 45 0 0.0 0.0 0.00 0.00 0.00 56 1014.5
20200407054005 45 0 0.0 0.0 0.00 0.00 0.00 55 1014.7
20200407053504 45 161 0.0 2.0 0.00 0.00 0.00 53 1014.7
20200407053004 45 161 0.0 2.0 0.00 0.00 0.00 53 1014.7
20200407052504 45 161 0.0 1.0 0.00 0.00 0.00 53 1014.8
20200407052005 45 161 0.0 1.0 0.00 0.00 0.00 52 1014.8
20200407051505 45 161 0.0 1.0 0.00 0.00 0.00 51 1014.8
20200407051004 46 159 0.0 2.0 0.00 0.00 0.00 52 1014.9
20200407050504 46 159 0.0 2.0 0.00 0.00 0.00 52 1015.0
20200407050004 46 159 0.0 2.0 0.00 0.00 0.00 52 1015.0
20200407045503 46 159 0.0 1.0 0.00 0.00 0.00 52 1015.1
20200407045005 46 159 0.0 2.0 0.00 0.00 0.00 51 1015.1
20200407044504 46 159 0.0 2.0 0.00 0.00 0.00 53 1015.0
20200407044004 46 159 0.0 1.0 0.00 0.00 0.00 52 1015.0
20200407043503 46 158 0.0 1.0 0.00 0.00 0.00 52 1015.0
20200407043004 46 0 0.0 0.0 0.00 0.00 0.00 52 1015.0
20200407042503 46 0 0.0 0.0 0.00 0.00 0.00 51 1015.0
20200407042004 46 158 0.0 1.0 0.00 0.00 0.00 51 1015.0
20200407041504 46 158 0.0 2.0 0.00 0.00 0.00 51 1015.0
20200407041004 46 158 0.0 2.0 0.00 0.00 0.00 51 1014.9
20200407040505 46 159 0.0 1.0 0.00 0.00 0.00 51 1014.8
20200407040005 46 159 0.0 2.0 0.00 0.00 0.00 51 1015.0
20200407035504 46 158 0.0 2.0 0.00 0.00 0.00 51 1015.0
20200407035004 46 158 0.0 2.0 0.00 0.00 0.00 51 1015.0
20200407034505 46 158 0.0 2.0 0.00 0.00 0.00 51 1015.0
20200407034004 46 157 0.0 2.0 0.00 0.00 0.00 53 1015.0
20200407033504 46 154 0.0 1.0 0.00 0.00 0.00 52 1015.0
20200407033003 46 154 0.0 1.0 0.00 0.00 0.00 51 1015.2
20200407032504 46 0 0.0 0.0 0.00 0.00 0.00 48 1015.3
20200407032004 46 154 0.0 1.0 0.00 0.00 0.00 48 1015.3
20200407031503 46 154 0.0 1.0 0.00 0.00 0.00 46 1015.4
20200407031004 46 154 0.0 1.0 0.00 0.00 0.00 46 1015.5
20200407030503 46 154 0.0 1.0 0.00 0.00 0.00 45 1015.7
20200407030003 46 0 0.0 0.0 0.00 0.00 0.00 45 1015.7
20200407025503 46 153 0.0 1.0 0.00 0.00 0.00 44 1015.8
20200407025004 46 153 0.0 3.0 0.00 0.00 0.00 48 1016.0
20200407024504 46 153 0.0 3.0 0.00 0.00 0.00 48 1016.1
20200407024004 47 153 0.0 3.0 0.00 0.00 0.00 44 1016.3
20200407023504 47 153 0.0 1.0 0.00 0.00 0.00 44 1016.4
20200407023004 47 153 0.0 1.0 0.00 0.00 0.00 40 1016.3
20200407022504 47 0 0.0 0.0 0.00 0.00 0.00 37 1016.5
20200407022004 47 153 0.0 1.0 0.00 0.00 0.00 36 1016.4
20200407021502 47 322 1.0 5.0 0.00 0.00 0.00 37 1016.5
20200407021004 47 314 1.0 5.0 0.00 0.00 0.00 37 1016.5
20200407020503 47 310 0.0 4.0 0.00 0.00 0.00 37 1016.4
20200407020004 47 295 0.0 5.0 0.00 0.00 0.00 38 1016.5
20200407015504 47 268 1.0 5.0 0.00 0.00 0.00 37 1016.4
20200407015003 47 247 1.0 4.0 0.00 0.00 0.00 37 1016.3
20200407014505 47 222 1.0 4.0 0.00 0.00 0.00 40 1016.1
20200407014004 47 220 0.0 4.0 0.00 0.00 0.00 37 1016.0
20200407013504 47 220 0.0 1.0 0.00 0.00 0.00 37 1016.0
20200407013004 47 210 0.0 2.0 0.00 0.00 0.00 38 1015.8
20200407012504 47 208 0.0 2.0 0.00 0.00 0.00 38 1015.9
20200407012005 47 207 0.0 2.0 0.00 0.00 0.00 36 1015.8
20200407011504 47 208 0.0 2.0 0.00 0.00 0.00 36 1015.9
20200407011004 48 208 0.0 2.0 0.00 0.00 0.00 35 1015.9
20200407010504 48 210 0.0 2.0 0.00 0.00 0.00 35 1015.9
20200407010004 48 213 0.0 1.0 0.00 0.00 0.00 37 1016.0
20200407005503 48 215 0.0 2.0 0.00 0.00 0.00 34 1015.9
20200407005003 48 215 0.0 2.0 0.00 0.00 0.00 34 1015.9
20200407004502 48 219 0.0 2.0 0.00 0.00 0.00 34 1015.9
20200407004002 48 220 0.0 3.0 0.00 0.00 0.00 36 1016.0
20200407003504 48 198 0.0 3.0 0.00 0.00 0.00 35 1015.9
20200407003004 48 186 1.0 4.0 0.00 0.00 0.00 35 1015.9
20200407002504 48 187 0.0 4.0 0.00 0.00 0.00 37 1016.0
20200407002004 49 171 0.0 1.0 0.00 0.00 0.00 40 1016.0
20200407001504 49 174 0.0 3.0 0.00 0.00 0.00 39 1016.0
20200407001003 49 174 0.0 3.0 0.00 0.00 0.00 38 1016.0
20200407000503 49 200 0.0 2.0 0.00 0.00 0.00 37 1015.9
20200407000003 49 200 0.0 3.0 0.00 0.00 0.00 36 1015.9
20200406235504 49 212 0.0 3.0 0.00 0.00 0.00 34 1015.9
20200406235005 49 219 0.0 4.0 0.00 0.00 0.00 32 1015.9
20200406234504 50 190 1.0 5.0 0.00 0.00 0.00 33 1015.9
20200406234003 50 176 0.0 5.0 0.00 0.00 0.00 32 1015.9
20200406233504 50 196 0.0 3.0 0.00 0.00 0.00 32 1015.9
20200406233004 50 203 0.0 3.0 0.00 0.00 0.00 30 1015.7
20200406232504 50 217 0.0 2.0 0.00 0.00 0.00 34 1015.7
20200406232003 50 0 0.0 0.0 0.00 0.00 0.00 39 1015.7
20200406231505 50 0 0.0 0.0 0.00 0.00 0.00 38 1015.7
20200406231004 50 0 0.0 0.0 0.00 0.00 0.00 37 1015.7
20200406230504 51 256 0.0 2.0 0.00 0.00 0.00 36 1015.7
20200406230003 51 183 0.0 2.0 0.00 0.00 0.00 38 1015.7
20200406225502 51 165 0.0 2.0 0.00 0.00 0.00 37 1015.7
20200406225004 52 163 0.0 2.0 0.00 0.00 0.00 42 1015.7
20200406224506 52 163 0.0 2.0 0.00 0.00 0.00 42 1015.7
20200406224005 52 173 0.0 3.0 0.00 0.00 0.00 41 1015.7
20200406223504 52 175 0.0 3.0 0.00 0.00 0.00 42 1015.9
20200406223004 52 208 0.0 2.0 0.00 0.00 0.00 42 1015.9
20200406222504 52 214 1.0 4.0 0.00 0.00 0.00 42 1016.0
20200406222006 52 194 1.0 5.0 0.00 0.00 0.00 42 1015.9
20200406221504 52 185 1.0 5.0 0.00 0.00 0.00 43 1015.9
20200406221004 52 203 1.0 4.0 0.00 0.00 0.00 43 1015.8
20200406220502 52 198 1.0 4.0 0.00 0.00 0.00 44 1015.9
20200406220005 52 189 1.0 8.0 0.00 0.00 0.00 45 1015.8
20200406215505 52 200 2.0 8.0 0.00 0.00 0.00 44 1015.8
20200406215004 53 214 1.0 6.0 0.00 0.00 0.00 42 1015.8
20200406214504 53 232 0.0 3.0 0.00 0.00 0.00 43 1015.9
20200406214004 53 0 0.0 0.0 0.00 0.01 0.00 44 1016.0
20200406213504 53 173 0.0 5.0 0.00 0.01 0.00 44 1016.0
20200406213003 54 175 0.0 5.0 0.00 0.01 0.00 45 1016.0
20200406212503 54 199 1.0 7.0 0.00 0.01 0.00 43 1016.0
20200406212003 54 206 2.0 7.0 0.00 0.01 0.00 44 1016.1
20200406211502 54 232 2.0 6.0 0.00 0.01 0.00 44 1016.1
20200406211004 54 240 1.0 6.0 0.00 0.01 0.00 45 1016.2
20200406210504 54 207 2.0 8.0 0.00 0.01 0.00 45 1016.3
20200406210004 54 189 1.0 8.0 0.00 0.01 0.00 47 1016.2
20200406205504 54 221 0.0 6.0 0.00 0.01 0.00 47 1016.2
20200406205004 54 200 1.0 8.0 0.00 0.01 0.00 47 1016.3
20200406204503 54 187 1.0 8.0 0.00 0.01 0.00 47 1016.3
20200406204004 54 211 1.0 7.0 0.00 0.01 0.00 50 1016.4
20200406203504 53 199 1.0 7.0 0.00 0.01 0.00 48 1016.5
20200406203004 54 220 1.0 8.0 0.00 0.01 0.00 48 1016.6
20200406202504 54 246 1.0 8.0 0.00 0.01 0.00 48 1016.6
20200406202005 54 189 1.0 5.0 0.00 0.01 0.00 48 1016.6
20200406201505 54 178 1.0 5.0 0.00 0.01 0.00 50 1016.6
20200406201004 54 190 2.0 10.0 0.00 0.01 0.00 49 1016.7
20200406200504 54 190 2.0 10.0 0.00 0.01 0.00 49 1016.7
20200406200003 54 203 2.0 8.0 0.00 0.01 0.00 51 1016.9
20200406195503 55 206 2.0 8.0 0.00 0.01 0.00 49 1017.0
20200406195003 55 204 1.0 8.0 0.00 0.01 0.00 51 1017.1
20200406194503 55 192 2.0 8.0 0.00 0.01 0.00 49 1017.2
20200406194004 55 194 2.0 8.0 0.00 0.01 0.00 50 1017.1
20200406193504 55 210 2.0 8.0 0.00 0.01 0.00 49 1017.2
20200406193004 55 204 2.0 7.0 0.00 0.01 0.00 49 1017.4
20200406192504 55 202 2.0 7.0 0.00 0.01 0.00 50 1017.6
20200406192003 55 194 2.0 9.0 0.00 0.01 0.00 50 1017.6
20200406191504 55 225 2.0 9.0 0.00 0.01 0.00 51 1017.7
20200406191004 55 236 2.0 6.0 0.00 0.01 0.00 51 1017.7
20200406190504 55 219 2.0 9.0 0.00 0.01 0.00 52 1017.6
20200406190004 54 221 3.0 10.0 0.00 0.01 0.00 52 1017.8
20200406185504 54 202 3.0 10.0 0.00 0.01 0.00 52 1018.0
20200406185004 55 224 3.0 10.0 0.00 0.01 0.00 52 1018.2
20200406184503 54 214 3.0 10.0 0.00 0.01 0.00 52 1018.2
20200406184003 54 204 2.0 10.0 0.00 0.01 0.00 53 1018.2
20200406183504 54 279 3.0 11.0 0.00 0.01 0.00 51 1018.2
20200406183004 55 273 4.0 11.0 0.00 0.01 0.00 50 1018.4
20200406182504 54 259 3.0 9.0 0.00 0.01 0.00 53 1018.4
20200406182004 54 274 2.0 7.0 0.00 0.01 0.00 54 1018.4
20200406181505 54 271 2.0 7.0 0.00 0.01 0.00 52 1018.5
20200406181003 54 223 2.0 8.0 0.00 0.01 0.00 52 1018.5
20200406180504 54 198 1.0 8.0 0.00 0.01 0.00 50 1018.6
20200406180004 53 252 2.0 8.0 0.00 0.01 0.00 54 1018.6